Location: Howard City Library
(37.4684°N, 96.2639°W)
Time: 04:15:10
(UTC+00:00)

STARLINK-1109 - Pass Details

Date: 18 February 2020
Orbit: 548 x 551 km, 53.0° (Epoch: 09 April)

Event Time Altitude Azimuth Distance (km) Brightness Sun altitude
Exits shadow 10:24:33 15° 52° (NE) 1,508 6.4 -33.6°
Drops below altitude 10° 10:25:18 10° 51° (NE) 1,801 6.9 -33.5°
Enters shadow 11:25:46 -62° 234° (SW) 11,885 10.4 -21.6°
